Temperature
18 18 18 17 17 17 17 17 17 17 17 17 17 16 16 16 16 16 16 16 16 17 17 17 17 17 17 17 17 17 17 17 17 17 17 17 17 17 17 17 17 17 17
18 18 18 17 17 17 17 17 17 17 17 17 17 16 16 16 16 16 16 16 16 16 16 16 16 16 16 17 17 17 17 17 16 16 16 16 16 16 16 17 17 17 17
17 17 18 17 17 17 17 17 17 17 17 17 16 16 16 16 16 16 16 16 16 16 16 16 16 16 16 16 16 16 16 16 16 16 16 16 16 16 16 16 16 17 17
17 17 17 17 17 17 17 17 17 17 17 17 16 16 16 16 16 16 16 16 16 16 16 16 16 16 16 16 16 16 16 16 16 16 16 16 16 16 16 16 16 16 16
17 17 17 17 17 17 17 17 17 17 17 16 16 16 16 16 16 16 16 16 16 16 16 16 16 16 16 16 16 16 16 16 16 16 16 16 16 16 16 16 16 16 16
18 17 17 17 17 17 17 17 17 16 16 16 16 16 16 16 16 16 16 16 16 16 16 16 16 16 16 16 16 16 16 16 16 16 16 16 16 16 16 16 16 16 16
18 18 17 17 17 17 17 17 17 16 16 16 16 16 16 16 16 15 15 15 16 16 16 16 16 16 16 16 16 16 16 16 16 16 16 16 16 16 16 15 15 16 16
18 18 17 17 17 17 17 17 17 16 16 16 16 16 16 15 15 15 15 15 15 15 15 15 16 16 16 16 16 16 16 16 16 16 16 16 16 16 16 15 15 15 16
18 17 17 17 17 17 17 17 17 16 16 16 16 16 16 16 16 16 16 15 15 15 15 15 15 15 16 16 16 16 16 16 16 16 16 16 16 16 16 15 15 15 15
17 17 17 17 17 17 17 16 16 16 16 16 15 15 16 16 16 16 16 15 15 15 15 15 15 15 15 15 15 16 16 16 16 16 16 16 16 16 15 15 15 15 15
17 17 17 17 17 16 16 16 16 16 16 16 15 15 15 15 15 16 16 16 15 15 15 15 15 15 15 15 15 15 15 15 16 16 16 16 16 16 15 15 15 15 15
17 17 17 16 16 16 16 16 16 16 16 15 15 15 15 15 15 15 16 16 16 16 15 15 15 15 15 15 15 15 15 15 15 15 16 16 16 15 15 15 15 15 15
17 17 16 16 16 16 16 16 16 16 15 15 15 15 15 15 15 15 15 15 16 15 15 15 15 15 15 15 14 15 15 15 15 15 15 15 15 15 15 15 15 15 15
16 16 16 16 16 16 16 16 15 15 15 15 15 15 15 15 15 15 15 15 15 15 15 15 16 16 15 15 15 14 15 15 15 15 15 15 15 15 15 15 14 14 14
16 16 16 16 16 16 15 15 15 15 15 15 15 14 14 15 14 14 14 14 14 15 15 15 16 16 16 15 15 15 14 15 15 15 15 15 15 15 15 15 14 14 14
16 16 16 16 16 16 15 15 15 15 15 14 14 14 14 14 14 14 14 14 14 14 14 15 15 15 15 15 15 15 15 14 14 15 15 15 15 15 15 14 14 14 14
16 16 16 16 16 16 15 15 15 15 14 14 14 14 14 14 14 14 14 14 14 14 14 14 15 15 15 15 15 15 15 14 14 14 14 14 14 14 14 14 14 14 14
16 16 15 15 15 15 15 15 15 14 14 14 14 13 13 13 13 13 13 13 13 13 13 14 14 14 15 15 15 15 14 14 14 14 14 14 14 14 14 14 14 14 14
16 15 15 15 15 15 15 15 15 14 14 14 14 13 13 13 13 13 13 13 13 13 13 13 13 14 14 14 14 14 14 14 14 14 14 14 14 14 14 14 14 14 14
16 15 15 15 15 15 15 15 14 14 14 14 14 13 13 13 13 13 13 13 13 13 13 13 13 13 13 14 14 14 14 14 14 14 14 14 14 14 14 14 14 14 14
16 15 15 15 15 15 15 14 14 14 14 14 14 13 13 13 13 13 13 13 12 12 12 12 12 13 13 13 13 14 14 14 14 14 14 14 14 14 14 14 14 14 14
16 15 15 15 15 15 15 14 14 14 14 14 14 14 13 13 13 13 13 13 12 12 12 12 12 12 12 13 13 13 13 13 14 14 14 14 14 14 14 14 13 13 14
15 15 15 15 15 15 15 14 14 14 14 14 14 14 14 13 13 13 13 13 13 12 12 12 12 12 12 12 12 12 13 13 13 13 13 14 14 14 14 13 13 13 14
14 14 14 14 14 14 14 14 14 14 14 14 14 14 14 14 14 13 13 13 13 13 12 12 12 12 12 12 12 12 12 12 13 13 13 13 14 14 14 13 13 13 13
13 13 13 14 14 14 14 14 14 14 14 14 14 14 14 14 14 14 14 13 13 13 13 13 12 12 12 12 12 12 12 12 12 13 13 13 13 13 14 14 13 13 13
12 12 12 13 13 13 13 14 14 14 14 14 14 14 14 14 14 14 14 14 13 13 13 13 13 12 12 12 12 12 12 12 12 12 12 13 13 13 13 14 14 13 13
Wind_Speed
4 3 3 3 2 2 1 1 2 1 2 4 5 5 4 4 4 4 4 4 3 3 4 5 5 5 5 5 5 5 5 5 5 5 4 3 3 2 1 1 2 3 4
5 4 3 3 4 4 3 2 1 1 2 4 4 5 4 4 4 4 5 6 6 5 4 4 5 5 4 4 4 4 4 4 4 4 4 3 2 1 0 0 2 3 4
8 5 4 4 4 5 4 2 2 3 3 3 4 4 3 3 3 4 5 6 6 7 6 5 5 5 5 4 4 4 3 3 3 3 3 3 2 1 1 1 1 3 4
11 6 5 5 5 5 4 3 3 3 3 4 4 3 2 2 3 3 4 5 6 6 6 6 6 5 5 5 4 4 3 3 3 2 2 2 1 1 1 1 1 2 4
13 8 5 5 5 3 3 3 3 3 4 4 4 2 2 2 1 2 3 4 5 6 6 7 7 7 6 5 4 4 4 3 3 2 2 1 0 0 1 1 1 2 3
13 10 5 5 5 3 4 4 4 3 3 4 4 2 1 0 0 1 1 2 3 4 4 5 6 7 7 7 5 4 4 3 3 3 2 1 1 0 1 1 1 2 2
11 9 6 6 5 5 5 5 4 4 3 3 4 2 2 1 1 1 1 1 1 1 1 2 3 4 5 6 6 5 4 4 4 3 3 2 1 1 1 1 1 1 1
9 9 7 6 7 6 6 6 5 4 3 4 4 3 1 2 2 2 2 3 3 2 2 2 1 1 1 2 4 5 5 4 4 4 4 4 3 2 2 1 1 1 2
8 7 7 6 7 7 7 8 7 7 5 3 2 4 4 5 3 2 3 4 4 3 3 4 4 3 2 1 0 2 4 5 4 4 4 4 4 3 2 2 2 2 2
6 7 6 6 7 6 7 8 7 6 6 5 3 1 2 3 3 2 2 3 4 5 5 4 5 7 5 4 3 1 1 3 4 5 5 5 5 4 2 2 2 2 2
5 6 6 6 6 6 7 7 8 8 6 6 5 3 2 1 1 3 3 2 2 4 5 5 6 8 9 7 6 4 2 1 3 4 5 6 6 5 4 3 3 3 3
3 4 5 5 6 6 7 7 8 9 8 7 6 5 5 3 4 3 3 3 3 3 4 4 5 8 10 10 8 7 5 2 1 2 4 5 6 6 5 4 5 5 5
2 3 4 4 4 5 5 6 7 8 8 9 9 7 7 5 4 4 4 3 3 2 2 3 5 8 10 11 11 9 7 5 3 1 2 3 5 5 6 6 7 7 7
2 2 3 3 3 4 4 5 5 6 7 8 9 8 6 6 5 5 5 5 3 2 3 5 3 7 11 12 13 11 9 8 6 3 1 2 3 5 6 7 8 8 8
2 2 2 2 2 2 3 4 4 5 6 7 7 8 7 6 6 6 5 5 6 4 5 5 4 5 10 12 13 12 11 10 8 6 4 2 2 3 4 5 6 7 7
2 3 3 2 2 2 2 2 2 3 5 5 5 7 7 5 6 6 6 5 5 6 5 4 5 3 5 8 12 13 12 11 10 8 6 4 3 2 2 3 4 4 5
2 3 3 2 2 2 2 2 2 2 3 3 3 5 6 6 6 6 6 6 6 5 6 3 2 2 5 5 6 10 11 10 10 10 9 7 6 4 3 2 2 2 2
2 3 3 3 3 3 2 3 2 2 2 3 3 3 4 4 6 6 6 7 7 6 5 5 3 2 3 4 4 5 6 9 10 11 11 10 9 8 6 5 4 2 1
2 3 3 3 3 4 3 3 3 2 2 2 2 2 3 3 4 4 5 6 6 6 5 4 4 2 2 2 2 3 4 4 7 10 12 12 12 11 10 8 7 6 4
2 3 3 4 4 4 4 4 4 3 2 1 1 1 2 3 4 3 4 5 5 5 5 4 3 3 2 2 2 3 3 4 5 6 9 11 12 13 12 12 11 9 8
3 3 3 4 4 4 5 6 5 4 4 2 1 1 2 3 4 3 2 3 4 4 4 4 3 3 3 3 3 3 4 2 4 5 4 6 8 9 11 13 13 13 11
3 3 3 4 4 5 6 9 7 5 5 4 3 2 2 2 3 4 4 4 5 4 4 3 3 3 4 4 3 3 3 2 3 4 5 5 5 8 10 13 15 15 14
4 3 3 3 5 6 7 7 10 6 5 5 4 3 2 3 3 2 3 4 5 6 6 4 4 4 4 5 5 5 5 5 5 3 4 4 4 6 9 13 17 18 18
4 3 4 4 4 5 6 7 9 7 5 5 5 5 4 3 3 4 3 3 4 5 6 5 5 5 5 4 5 5 5 4 3 2 4 4 3 4 4 10 17 20 20
5 4 4 4 4 5 5 4 5 5 4 4 4 4 5 4 5 5 4 4 4 4 6 8 9 8 9 9 6 3 3 3 4 4 5 4 3 3 3 4 10 17 21
5 5 5 5 4 5 6 4 4 4 4 3 2 3 4 5 4 5 5 5 5 4 2 2 3 4 4 5 8 7 6 5 3 3 5 5 2 2 3 2 2 6 11
Wind_Direction
180 185 193 200 200 183 193 308 332 337 131 139 133 124 109 92 76 57 38 54 74 109 127 126 133 135 139 146 152 148 146 148 152 153 147 142 137 124 97 31 3 358 357
186 187 196 204 210 197 197 225 262 130 133 135 129 126 115 99 83 68 57 57 64 74 99 114 115 121 128 135 143 146 150 152 155 159 161 158 155 147 157 345 345 350 352
198 195 200 213 214 191 179 172 114 105 113 121 126 124 118 110 95 74 65 62 62 64 75 94 105 107 114 118 124 124 130 145 149 156 162 163 170 178 220 271 326 344 347
205 199 205 222 215 181 165 157 139 120 131 141 142 141 129 125 110 90 73 66 66 64 68 81 85 91 98 104 110 113 114 118 122 131 140 150 180 211 248 277 310 338 344
207 201 210 223 209 178 172 174 156 151 160 160 151 134 138 146 143 118 84 68 69 72 68 70 73 74 80 85 92 100 102 102 99 100 115 125 141 219 264 276 297 331 344
205 202 208 218 199 189 189 178 164 148 146 151 137 101 64 231 205 149 124 85 70 68 72 72 67 62 62 62 69 82 87 90 86 74 67 71 94 352 292 270 280 316 340
200 199 206 204 194 201 202 178 155 148 131 131 106 77 24 2 244 241 205 160 155 75 92 82 71 64 52 49 52 63 65 71 66 61 47 42 44 20 353 333 318 314 339
195 201 199 198 196 197 193 181 161 153 153 159 136 124 99 329 288 226 215 214 209 211 221 213 178 96 59 46 44 53 54 56 52 51 49 44 38 28 26 16 360 2 12
197 200 197 195 194 192 196 191 179 167 167 181 179 155 162 211 243 268 228 219 208 210 229 233 224 221 221 232 352 50 60 53 46 44 42 36 31 33 36 27 21 18 21
197 203 201 196 196 194 196 196 186 178 165 175 185 178 157 159 167 215 274 231 215 218 222 226 224 224 225 230 240 248 77 59 43 35 35 29 27 32 35 29 25 28 20
199 202 203 197 199 199 200 194 187 186 182 178 175 159 138 142 162 157 210 237 236 230 218 217 221 221 223 226 234 238 220 106 61 42 32 27 27 32 39 40 32 22 16
209 209 201 201 201 200 201 199 194 192 194 188 184 175 169 177 192 181 179 200 224 242 224 215 216 218 217 220 227 232 224 198 121 67 44 35 33 34 37 41 38 36 40
207 217 201 202 202 203 199 192 193 199 196 196 199 199 193 198 179 177 173 172 200 242 246 233 220 215 214 214 221 225 223 214 195 143 71 51 47 45 42 47 49 48 47
201 196 186 191 198 195 190 187 194 199 200 206 210 205 204 204 193 188 178 162 170 223 252 252 228 213 211 208 215 216 218 217 210 199 167 86 66 60 60 59 56 55 52
165 144 138 146 160 172 180 177 193 199 197 206 211 211 211 207 200 199 188 176 171 195 232 239 231 220 209 207 210 208 213 217 215 214 209 186 118 85 78 75 71 64 57
117 116 110 111 108 118 143 161 177 195 198 204 204 207 211 207 205 201 199 195 187 185 209 227 224 213 196 206 208 205 211 218 221 221 220 213 194 157 120 100 86 75 65
133 132 133 129 121 116 124 142 162 173 190 201 206 208 213 202 206 207 200 196 195 185 206 216 204 189 182 191 192 200 209 214 222 224 225 226 222 215 205 186 149 105 75
155 159 154 152 152 148 146 150 164 176 184 198 207 208 214 208 209 207 204 205 201 194 195 202 193 186 191 190 181 189 201 215 221 227 228 230 231 230 228 224 217 210 195
174 174 171 179 183 181 174 171 169 170 178 191 202 207 212 205 212 209 206 206 203 201 193 188 183 172 157 140 150 190 198 210 221 228 230 230 231 232 232 231 228 224 221
221 210 204 204 202 197 192 187 180 182 185 190 204 213 212 213 220 213 210 206 198 196 190 185 177 167 153 145 155 180 206 212 223 221 225 227 229 232 234 234 233 230 227
271 246 228 222 210 204 207 199 194 193 194 202 223 233 230 218 217 204 195 195 190 188 182 182 179 171 173 172 196 189 208 204 228 215 216 223 222 229 232 235 235 234 230
316 288 257 240 229 228 219 205 195 193 195 199 211 233 253 248 235 219 214 201 194 190 191 185 186 198 200 196 184 188 184 177 249 208 201 232 206 231 233 231 233 232 230
340 318 293 263 251 248 242 222 204 190 196 202 206 212 231 232 224 221 238 230 220 216 204 186 192 209 205 202 191 196 201 208 224 189 176 237 206 237 238 234 232 231 229
343 325 313 298 278 273 261 236 210 192 197 206 206 207 218 236 225 207 209 223 234 235 226 218 216 221 218 207 200 201 205 215 225 185 174 228 216 233 241 233 233 229 227
347 337 326 323 309 305 306 266 196 174 194 211 210 210 217 229 239 212 199 226 253 261 252 239 237 241 239 230 209 193 196 207 235 223 191 214 230 229 248 246 237 230 227
351 354 3 3 355 338 334 315 187 165 181 197 207 220 225 229 238 215 199 211 242 262 253 260 254 261 253 246 224 209 209 213 220 236 192 195 210 195 271 259 257 233 228
Height
1537 1539 1540 1542 1544 1545 1547 1548 1549 1550 1551 1551 1552 1552 1551 1551 1551 1551 1551 1552 1552 1553 1553 1553 1554 1555 1555 1556 1557 1558 1559 1560 1560 1561 1562 1562 1563 1564 1564 1564 1564 1565 1564
1537 1538 1540 1542 1544 1545 1547 1548 1549 1550 1551 1551 1552 1552 1552 1551 1551 1551 1551 1552 1552 1553 1553 1553 1554 1554 1555 1555 1556 1557 1558 1559 1559 1560 1561 1561 1562 1562 1563 1563 1563 1564 1563
1536 1538 1539 1541 1543 1545 1547 1548 1549 1550 1551 1551 1552 1552 1552 1552 1552 1552 1552 1552 1552 1552 1553 1553 1554 1554 1554 1555 1555 1556 1557 1557 1558 1559 1559 1560 1560 1561 1561 1562 1562 1562 1562
1535 1537 1538 1540 1543 1544 1546 1547 1548 1549 1550 1551 1551 1552 1552 1552 1552 1552 1552 1552 1552 1553 1553 1553 1554 1554 1554 1554 1555 1555 1556 1556 1557 1557 1558 1558 1559 1559 1560 1560 1561 1561 1561
1533 1535 1537 1539 1541 1543 1544 1546 1547 1548 1549 1550 1551 1551 1552 1552 1552 1552 1553 1553 1553 1553 1553 1553 1553 1554 1554 1554 1554 1555 1555 1555 1556 1556 1556 1556 1557 1557 1558 1558 1559 1559 1559
1531 1532 1534 1536 1538 1540 1542 1543 1545 1546 1547 1549 1550 1550 1551 1551 1552 1552 1552 1552 1553 1553 1553 1553 1553 1553 1554 1554 1554 1554 1554 1555 1555 1555 1555 1555 1555 1556 1556 1557 1557 1557 1558
1528 1529 1531 1533 1535 1537 1538 1540 1542 1544 1545 1546 1548 1549 1549 1550 1550 1551 1551 1552 1552 1552 1552 1552 1553 1553 1553 1553 1554 1554 1554 1554 1554 1554 1554 1554 1554 1554 1554 1555 1555 1556 1556
1525 1526 1528 1529 1531 1533 1534 1536 1538 1540 1542 1544 1545 1546 1547 1549 1548 1549 1549 1550 1551 1551 1551 1552 1552 1552 1553 1553 1553 1553 1553 1553 1553 1553 1553 1553 1553 1553 1553 1553 1554 1554 1554
1522 1523 1524 1526 1527 1528 1530 1532 1534 1536 1538 1540 1542 1544 1544 1544 1545 1546 1547 1548 1549 1550 1550 1551 1551 1552 1552 1552 1552 1553 1553 1553 1553 1553 1552 1552 1552 1552 1552 1552 1552 1552 1553
1519 1520 1521 1522 1523 1524 1526 1527 1529 1531 1533 1535 1537 1539 1541 1542 1543 1543 1545 1545 1547 1548 1549 1550 1550 1551 1551 1552 1552 1552 1552 1552 1552 1552 1551 1551 1551 1551 1551 1551 1551 1551 1551
1515 1516 1517 1518 1519 1520 1521 1523 1524 1526 1528 1529 1531 1534 1536 1538 1540 1541 1541 1542 1544 1545 1546 1548 1549 1550 1550 1551 1551 1551 1551 1551 1551 1551 1551 1550 1550 1550 1549 1549 1550 1550 1550
1512 1513 1514 1515 1515 1516 1517 1518 1520 1521 1522 1524 1527 1528 1530 1533 1534 1537 1538 1539 1540 1542 1543 1545 1546 1547 1548 1549 1549 1549 1550 1550 1550 1550 1550 1549 1549 1548 1548 1548 1548 1548 1548
1510 1511 1511 1512 1512 1513 1514 1514 1515 1516 1518 1519 1521 1523 1525 1527 1530 1532 1535 1536 1537 1539 1540 1541 1543 1545 1546 1547 1548 1548 1548 1548 1549 1549 1548 1548 1547 1547 1546 1546 1546 1546 1546
1508 1508 1509 1509 1509 1509 1510 1511 1511 1512 1513 1514 1516 1518 1520 1522 1524 1527 1529 1532 1533 1535 1536 1538 1540 1541 1543 1544 1545 1546 1546 1547 1547 1547 1547 1547 1546 1545 1545 1544 1544 1544 1544
1506 1507 1506 1507 1506 1507 1507 1508 1508 1508 1509 1510 1512 1513 1515 1517 1519 1521 1524 1526 1529 1530 1531 1533 1536 1538 1540 1541 1543 1544 1544 1545 1545 1546 1545 1545 1545 1544 1543 1543 1543 1543 1543
1505 1505 1505 1505 1505 1505 1505 1505 1505 1505 1506 1506 1507 1509 1510 1512 1514 1515 1518 1520 1523 1525 1526 1528 1531 1534 1536 1538 1539 1541 1542 1543 1543 1544 1544 1544 1543 1543 1542 1542 1541 1541 1541
1504 1504 1504 1504 1504 1504 1503 1503 1503 1503 1503 1504 1504 1505 1506 1508 1509 1511 1513 1514 1517 1519 1521 1524 1527 1529 1531 1533 1535 1537 1539 1540 1541 1541 1542 1542 1542 1541 1541 1540 1540 1539 1539
1503 1503 1503 1503 1503 1503 1503 1502 1502 1502 1502 1502 1502 1502 1503 1504 1505 1507 1508 1509 1511 1514 1516 1518 1521 1524 1526 1529 1531 1533 1535 1536 1537 1538 1539 1539 1539 1539 1539 1538 1538 1538 1537
1502 1503 1503 1503 1503 1502 1502 1502 1502 1501 1501 1501 1500 1500 1501 1501 1502 1503 1504 1505 1507 1509 1511 1513 1516 1519 1521 1524 1526 1528 1530 1532 1534 1535 1536 1536 1536 1536 1536 1536 1536 1536 1535
1501 1501 1501 1501 1502 1502 1502 1501 1501 1501 1500 1500 1500 1499 1499 1500 1500 1500 1501 1502 1503 1504 1506 1508 1511 1514 1516 1519 1522 1524 1526 1528 1530 1531 1532 1532 1533 1533 1533 1533 1533 1533 1533
1499 1499 1499 1499 1500 1500 1500 1500 1500 1500 1500 1499 1499 1499 1499 1499 1499 1500 1500 1500 1501 1502 1503 1505 1507 1509 1512 1514 1517 1519 1521 1523 1525 1527 1527 1528 1529 1529 1530 1530 1530 1530 1530
1495 1496 1496 1497 1497 1498 1498 1498 1498 1499 1499 1499 1499 1499 1499 1499 1499 1499 1500 1500 1500 1501 1502 1503 1505 1506 1508 1510 1512 1515 1517 1519 1520 1522 1523 1524 1525 1525 1526 1526 1526 1526 1527
1492 1492 1493 1493 1494 1495 1495 1495 1496 1496 1497 1498 1498 1498 1499 1499 1499 1499 1500 1500 1500 1501 1502 1503 1503 1504 1505 1507 1509 1511 1512 1514 1515 1517 1518 1518 1519 1520 1521 1521 1522 1522 1522
1488 1488 1489 1489 1490 1491 1492 1492 1493 1493 1494 1496 1496 1497 1498 1498 1499 1499 1499 1500 1500 1500 1501 1501 1502 1503 1504 1505 1505 1507 1508 1509 1510 1512 1513 1513 1514 1515 1516 1516 1517 1517 1517
1485 1485 1485 1486 1486 1487 1488 1488 1489 1490 1492 1493 1494 1495 1496 1497 1497 1498 1498 1499 1499 1499 1499 1499 1500 1501 1501 1502 1503 1503 1504 1505 1505 1506 1508 1508 1508 1509 1510 1511 1511 1512 1512
1484 1483 1483 1483 1483 1484 1484 1485 1486 1487 1488 1490 1491 1492 1494 1495 1496 1496 1497 1497 1497 1498 1497 1497 1498 1498 1499 1499 1500 1500 1501 1502 1502 1502 1503 1504 1504 1505 1505 1505 1506 1506 1507